Location: Będzin
(50.3253°N, 19.1291°E)
Time: 04:58:14
(UTC+01:00)

ISS - Visible Passes

Search period start: 24 November 2017 00:00
Search period end: 04 December 2017 00:00
Orbit: 402 x 407 km, 51.6° (Epoch: 24 November)

Date Brightness Start Highest point End Pass type
(mag) Time Alt. Az. Time Alt. Az. Time Alt. Az.
28 Nov -1.4 18:16:47 10° SSW 18:17:50 17° SSW 18:17:50 17° SSW visible
29 Nov -2.1 17:25:05 10° S 17:27:29 19° SE 17:27:45 19° SE visible
29 Nov -0.4 19:00:18 10° WSW 19:00:25 11° WSW 19:00:25 11° WSW visible
30 Nov -1.4 16:34:01 10° SSE 16:35:21 12° SE 16:36:42 10° ESE visible
30 Nov -2.5 18:08:02 10° SW 18:10:15 35° SSW 18:10:15 35° SSW visible
01 Dec -2.8 17:15:56 10° SW 17:18:57 34° SSE 17:20:01 26° ESE visible
01 Dec -0.7 18:51:58 10° W 18:52:40 15° W 18:52:40 15° W visible
02 Dec -2.1 16:24:05 10° SSW 16:26:42 22° SE 16:29:20 10° E visible
02 Dec -3.4 17:59:34 10° WSW 18:02:23 62° SW 18:02:23 62° SW visible
03 Dec -3.6 17:07:13 10° WSW 17:10:27 58° SSE 17:12:04 26° E visible
03 Dec -1.0 18:43:40 10° W 18:44:42 19° W 18:44:42 19° W visible
